Flag for Germany Weather past 2 weeks in Aurich, Lower Saxony, Germany

Now
48 °F

Fog.


Feels Like: 45 °F
Forecast: 37 / 50 °F
Wind: 7 mph from Northeast

Location: Wittmundhaven

Current Time: Apr 26, 2015 at 10:17:26 AM

Latest Report: Apr 26, 2015 at 9:20 AM


Visibility: 2 mi

Pressure: 29.71 "Hg

Humidity: 94%

Dew point: 46 °F

Location of AurichLocation

Historic Weather in Aurich — Graph

°F

Aurich temperature yesterday

Maximum temperature yesterday: 55 °F (at 3:20 PM)
Minimum temperature yesterday: 50 °F (at 12:20 AM)
Average temperature yesterday: 52 °F

Past Weeks' High & Low Weather Summary

 TemperatureHumidityPressure
High66 °F (Apr 24, 4:20 PM)100% (Apr 18, 4:20 AM)30.48 "Hg (Apr 18, 4:20 AM)
Low34 °F (Apr 20, 5:20 AM)40% (Apr 24, 4:20 PM)29.68 "Hg (Apr 25, 6:20 AM)
Average48 °F77%30.14 "Hg
* Reported Apr 11 8:20 AM — Apr 26 8:20 AM, Aurich, Weather by CustomWeather, © 2015

Note: Actual official high and low records may vary slightly from our data, if they occured in-between our weather recording intervals... More about our weather records

Advertising

Aurich weather history for previous 24 hours

 ConditionsComfort  
Time TempWeatherWind HumidityBarometerVisibility
8:20 AM
Sun, Apr 26
50 °FFog.5 mph94%29.68 "Hg2 mi
7:20 AM50 °FFog.3 mph94%29.68 "Hg2 mi
6:20 AM48 °FFog.5 mph94%29.68 "Hg2 mi
5:20 AM48 °FFog.3 mph94%29.68 "Hg2 mi
4:20 AM48 °FFog.3 mph94%29.68 "Hg1 mi
4:02 AM46 °FFog.5 mph100%29.68 "Hg1 mi
3:20 AM48 °FFog.5 mph94%29.68 "Hg0 mi
3:02 AM46 °FFog.5 mph100%29.68 "Hg1 mi
2:48 AM46 °FFog.5 mph100%29.68 "Hg2 mi
2:20 AM48 °FFog.5 mph94%29.71 "Hg3 mi
1:20 AM48 °FPassing clouds.6 mph94%29.71 "HgN/A
12:20 AM48 °FPassing clouds.5 mph100%29.71 "HgN/A
11:20 PM
Sat, Apr 25
50 °FPassing clouds.6 mph94%29.71 "HgN/A
10:20 PM52 °FPassing clouds.9 mph94%29.71 "HgN/A
9:20 PM54 °FDrizzle. Fog.7 mph88%29.68 "Hg3 mi
8:20 PM54 °FLight rain. Fog.7 mph94%29.68 "Hg3 mi
7:20 PM54 °FLight rain. Broken clouds.9 mph94%29.68 "Hg4 mi
6:20 PM54 °FDrizzle. Broken clouds.9 mph88%29.68 "Hg4 mi
5:20 PM55 °FLight rain. Partly sunny.7 mph88%29.68 "Hg4 mi
4:20 PM55 °FSprinkles. Broken clouds.12 mph88%29.68 "Hg5 mi
3:20 PM55 °FPartly sunny.13 mph88%29.68 "Hg4 mi
2:20 PM54 °FDrizzle. Partly sunny.12 mph88%29.68 "Hg4 mi
1:20 PM54 °FDrizzle. Fog.12 mph88%29.68 "Hg3 mi
12:20 PM52 °FLight rain. Fog.14 mph94%29.71 "Hg3 mi
11:20 AM52 °FLight rain. Fog.9 mph94%29.71 "Hg3 mi
10:20 AM52 °FLight rain. Broken clouds.13 mph88%29.71 "Hg4 mi
Weather by CustomWeather, © 2015

See weather overviewHow to use our weather pages